Central, Texas
Current Conditions -  °F | °C
As of 3:55 PM on Thursday 27 Nov 2014 (Local Time) from KOCH Reporting Station
Clear Clear  
Wind Chill: 63°   Ceiling: Unl
Heat Index: 63°   Visibility: 10mi
Dew Point: 25°   Wind: 5mph
Humidity: 24%   Direction: 110°ESE
Pressure: 30.44"   Gusts: NA
Location:  31.426°N, 94.8655°W
Report Text: KOCH 272155Z AUTO 11004KT 10SM CLR 17/M04 A3044 RMK AO1
Loading
Personal Weather Stations






























Interactive Weather Map New forecast layout! Learn more

10-Day Weather Forecast

Advertisements
Track Severe Weather on mobile